This is the latest recevied weather packets stored in our database for station/object N7QNM-13. If no packets are shown the sender has not sent any weather packets the latest 10 day(s).
| Time | Temp. | Humidity | Pressure | Rain* | Wind** | Luminosity | Snow |
|---|---|---|---|---|---|---|---|
| 1778116838 | 26.11° C | 32% | 1011.2 hPa | 0 mm | - | 65 W/m² | - |
| 1778115638 | 27.22° C | 31% | 1011 hPa | 0 mm | - | 96 W/m² | - |
| 1778110240 | 31.11° C | 31% | 1009.5 hPa | 0 mm | - | 364 W/m² | - |
| 1778107240 | 30° C | 32% | 1010.1 hPa | 0 mm | - | 493 W/m² | - |
| 1778101841 | 29.44° C | 34% | 1010.7 hPa | 0 mm | - | 379 W/m² | - |
| 1778100641 | 30° C | 34% | 1010.8 hPa | 0 mm | - | 702 W/m² | - |
| 1778095242 | 27.78° C | 38% | 1011.8 hPa | 0 mm | - | 863 W/m² | - |
| 1778092843 | 26.11° C | 43% | 1011.9 hPa | 0 mm | - | 834 W/m² | - |
| 1778091663 | 25.56° C | 45% | 1012.3 hPa | 0 mm | - | 330 W/m² | - |
| 1778086864 | 23.89° C | 47% | 1012.7 hPa | 0 mm | - | 654 W/m² | - |
| 1778085045 | 23.89° C | 46% | 1012.9 hPa | 0 mm | - | 574 W/m² | - |
| 1778084445 | 23.89° C | 45% | 1013 hPa | 0 mm | - | 549 W/m² | - |
| 1778083865 | 23.33° C | 46% | 1013.1 hPa | 0 mm | - | 519 W/m² | - |
| 1778079046 | 18.89° C | 62% | 1013 hPa | 0 mm | - | 226 W/m² | - |
| 1778077846 | 17.22° C | 68% | 1013 hPa | 0 mm | - | 185 W/m² | - |
| 1778067048 | 10.56° C | 80% | 1011.7 hPa | 0 mm | - | 0 W/m² | - |
| 1778066448 | 11.11° C | 79% | 1011.6 hPa | 0 mm | - | 0 W/m² | - |
| 1778063449 | 11.67° C | 74% | 1011.2 hPa | 0 mm | - | 0 W/m² | - |
| 1778059250 | 13.33° C | 70% | 1011 hPa | 0 mm | - | 0 W/m² | - |
| 1778057451 | 15° C | 66% | 1010.9 hPa | 0 mm | - | 0 W/m² | - |
| 1778056251 | 16.11° C | 62% | 1010.9 hPa | 0 mm | - | 0 W/m² | - |
| 1778051451 | 20.56° C | 48% | 1010.2 hPa | 0 mm | - | 0 W/m² | - |
| 1778049052 | 23.33° C | 40% | 1009.9 hPa | 0 mm | - | 0 W/m² | - |
| 1778047252 | 24.44° C | 39% | 1009.5 hPa | 0 mm | - | 0 W/m² | - |
| 1778044252 | 24.44° C | 37% | 1009.4 hPa | 0 mm | - | 0 W/m² | - |
* Rain latest hour (hover to see other rain measurements)
** Current wind speed in m/s (hover to see current wind gust speed)